Location: Gugi
(45.4667°N, 11.1000°E)
Time: 13:38:12
(UTC+00:00)

NOAA 12 - Pass Details

Date: 17 November 2019
Orbit: 795 x 815 km, 98.5° (Epoch: 05 December)

Event Time Altitude Azimuth Distance (km) Brightness Sun altitude
Rises 16:49:49 0° 160° (SSE) 3,327 7.3 -11.6°
Reaches altitude 10° 16:52:08 10° 158° (SSE) 2,400 6.5 -12.0°
Maximum altitude 16:57:27 77° 73° (ENE) 841 4.1 -12.9°
Drops below altitude 10° 17:02:47 10° 349° (N) 2,414 6.6 -13.8°
Sets 17:05:08 0° 348° (NNW) 3,348 7.3 -14.2°
